GW0483 Weather Reports


Display with metric or nautical units.
time (UTC)temp
F
wind
direction
speed
MPH
gust
MPH
rain 1hr
in
rain 24hr
in
rain mn
in
humidity
%
barometer
mb
20260507142522 57 6 2.0 3.0 0.00 0.00 0.00 94 1016.4
20260507142019 57 75 3.0 3.0 0.00 0.00 0.00 94 1016.0
20260507141515 57 347 5.0 10.0 0.00 0.00 0.00 94 1015.7
20260507141012 58 69 2.0 3.0 0.00 0.00 0.00 95 1016.1
20260507140508 58 43 2.0 2.0 0.00 0.00 0.00 95 1016.1
20260507140006 58 74 1.0 2.0 0.00 0.00 0.00 95 1016.0
20260507135503 57 338 6.0 9.0 0.00 0.00 0.00 95 1016.2
20260507135000 57 56 7.0 9.0 0.00 0.00 0.00 96 1016.2
20260507134456 57 83 1.0 1.0 0.00 0.00 0.00 95 1016.1
20260507133952 57 63 2.0 3.0 0.00 0.00 0.00 95 1016.4
20260507133448 57 280 1.0 2.0 0.00 0.00 0.00 95 1016.3
20260507132947 58 38 1.0 2.0 0.00 0.00 0.00 95 1015.7
20260507132442 58 100 2.0 2.0 0.00 0.00 0.00 95 1016.1
20260507131939 58 82 4.0 6.0 0.00 0.00 0.00 94 1015.8
20260507131436 58 17 5.0 7.0 0.00 0.00 0.00 94 1015.7
20260507130933 58 95 1.0 1.0 0.00 0.00 0.00 93 1015.7
20260507130431 58 28 1.0 3.0 0.00 0.00 0.00 93 1015.5
20260507125929 58 109 1.0 2.0 0.00 0.00 0.00 93 1015.9
20260507125427 58 13 2.0 3.0 0.00 0.00 0.00 93 1015.5
20260507124924 58 0 4.0 7.0 0.00 0.00 0.00 93 1015.8
20260507124420 58 53 2.0 3.0 0.00 0.00 0.00 93 1015.3
20260507123918 58 53 2.0 3.0 0.00 0.00 0.00 93 1015.4
20260507123415 58 96 2.0 2.0 0.00 0.00 0.00 93 1015.3
20260507122912 58 76 1.0 1.0 0.00 0.00 0.00 93 1015.4
20260507122407 58 63 3.0 6.0 0.00 0.00 0.00 93 1015.2
20260507121904 58 62 2.0 2.0 0.00 0.00 0.00 93 1015.1
20260507121359 58 23 5.0 6.0 0.00 0.00 0.00 93 1014.9
20260507120856 58 114 3.0 3.0 0.00 0.00 0.00 93 1014.8
20260507120352 58 33 1.0 2.0 0.00 0.00 0.00 92 1014.6
20260507115848 59 40 5.0 7.0 0.00 0.00 0.00 92 1014.8
20260507115344 59 91 5.0 8.0 0.00 0.00 0.00 92 1014.6
20260507114840 59 30 2.0 2.0 0.00 0.00 0.00 91 1014.4
20260507114337 59 135 3.0 3.0 0.00 0.00 0.00 91 1014.3
20260507113835 59 50 5.0 7.0 0.00 0.00 0.00 91 1014.3
20260507113332 59 37 1.0 3.0 0.00 0.00 0.00 91 1014.3
20260507112829 59 317 4.0 6.0 0.00 0.00 0.00 90 1014.4
20260507112326 59 50 3.0 7.0 0.00 0.00 0.00 90 1014.2
20260507111824 59 58 5.0 7.0 0.00 0.00 0.00 90 1014.0
20260507111320 59 48 6.0 8.0 0.00 0.00 0.00 90 1014.0
20260507110816 59 42 5.0 7.0 0.00 0.00 0.00 89 1013.9
20260507110313 60 57 3.0 5.0 0.00 0.00 0.00 89 1013.6
20260507105810 60 17 4.0 7.0 0.00 0.00 0.00 89 1013.9
20260507105307 60 45 1.0 1.0 0.00 0.00 0.00 89 1013.9
20260507104803 60 10 0.0 1.0 0.00 0.00 0.00 89 1013.8
20260507104300 60 111 1.0 2.0 0.00 0.00 0.00 89 1014.1
20260507103756 60 105 2.0 3.0 0.00 0.00 0.00 89 1014.2
20260507103252 60 29 0.0 1.0 0.00 0.00 0.00 89 1014.1
20260507102749 60 55 4.0 6.0 0.00 0.00 0.00 89 1014.0
20260507102246 60 59 0.0 1.0 0.00 0.00 0.00 89 1014.1
20260507101742 60 34 3.0 3.0 0.00 0.00 0.00 89 1013.8
20260507101237 60 32 1.0 2.0 0.00 0.00 0.00 89 1013.9
20260507100734 60 69 1.0 2.0 0.00 0.00 0.00 89 1013.6
20260507100233 60 5 4.0 5.0 0.00 0.00 0.00 88 1013.8
20260507095730 60 64 1.0 1.0 0.00 0.00 0.00 88 1013.8
20260507095226 60 55 1.0 2.0 0.00 0.00 0.00 88 1013.7
20260507094723 60 66 1.0 3.0 0.00 0.00 0.00 88 1013.7
20260507094220 60 49 5.0 6.0 0.00 0.00 0.00 88 1013.4
20260507093717 60 4 1.0 3.0 0.00 0.00 0.00 88 1013.4
20260507093216 60 6 2.0 3.0 0.00 0.00 0.00 88 1013.8
20260507092713 60 33 1.0 2.0 0.00 0.00 0.00 88 1013.8
20260507092209 60 15 1.0 1.0 0.00 0.00 0.00 88 1013.8
20260507091705 61 22 0.0 1.0 0.00 0.00 0.00 88 1013.6
20260507091202 60 58 2.0 5.0 0.00 0.00 0.00 88 1013.4
20260507090657 61 84 0.0 1.0 0.00 0.00 0.00 88 1013.8
20260507090155 61 41 4.0 6.0 0.00 0.00 0.00 88 1013.5
20260507085652 61 77 5.0 7.0 0.00 0.00 0.00 88 1013.7
20260507085148 60 25 1.0 5.0 0.00 0.00 0.00 88 1013.5
20260507084645 61 96 2.0 3.0 0.00 0.00 0.00 88 1013.5
20260507084142 61 106 3.0 5.0 0.00 0.00 0.00 88 1013.4
20260507083639 61 84 1.0 1.0 0.00 0.00 0.00 88 1013.6
20260507083136 61 61 3.0 6.0 0.00 0.00 0.00 88 1013.6
20260507082631 61 42 1.0 1.0 0.00 0.00 0.00 88 1013.8
20260507082128 61 61 1.0 1.0 0.00 0.00 0.00 88 1013.7
20260507081625 61 39 1.0 2.0 0.00 0.00 0.00 88 1013.5
20260507081121 61 2 1.0 3.0 0.00 0.00 0.00 88 1013.5
20260507080618 61 33 1.0 1.0 0.00 0.00 0.00 88 1013.6
20260507080114 61 81 1.0 2.0 0.00 0.00 0.00 88 1013.4
20260507075609 61 51 0.0 1.0 0.00 0.00 0.00 88 1013.8
20260507075105 61 32 1.0 2.0 0.00 0.00 0.00 88 1013.6
20260507074603 61 42 1.0 1.0 0.00 0.00 0.00 88 1013.6
20260507074101 61 116 1.0 1.0 0.00 0.00 0.00 89 1013.7
20260507073556 61 66 0.0 1.0 0.00 0.00 0.00 88 1013.8
20260507073053 61 48 3.0 3.0 0.00 0.00 0.00 88 1013.7
20260507072550 61 127 2.0 3.0 0.00 0.00 0.00 88 1013.9
20260507072047 61 24 1.0 2.0 0.00 0.00 0.00 89 1013.9
20260507071545 61 39 0.0 1.0 0.00 0.00 0.00 89 1013.7
20260507071041 61 59 0.0 1.0 0.00 0.00 0.00 89 1013.3
20260507070538 61 27 2.0 3.0 0.00 0.00 0.00 89 1013.6
20260507070035 61 359 1.0 2.0 0.00 0.00 0.00 89 1013.3
20260507065532 61 51 1.0 2.0 0.00 0.00 0.00 89 1013.3
20260507065029 61 56 0.0 0.0 0.00 0.00 0.00 89 1013.7
20260507064527 61 20 1.0 1.0 0.00 0.00 0.00 89 1013.7
20260507064025 61 21 4.0 5.0 0.00 0.00 0.00 89 1013.6
20260507063522 61 67 1.0 1.0 0.00 0.00 0.00 90 1013.5
20260507063020 61 59 0.0 1.0 0.00 0.00 0.00 89 1013.5
20260507062516 61 91 1.0 1.0 0.00 0.00 0.00 89 1013.4
20260507062014 61 31 1.0 1.0 0.00 0.00 0.00 90 1013.7
20260507061511 61 138 1.0 2.0 0.00 0.00 0.00 90 1013.6
20260507061009 61 53 0.0 1.0 0.00 0.00 0.00 90 1013.6
20260507060506 61 338 3.0 5.0 0.00 0.00 0.00 89 1013.6
20260507060003 61 29 1.0 2.0 0.00 0.00 0.00 90 1013.5
20260507055458 61 42 1.0 2.0 0.00 0.00 0.00 90 1013.2
20260507054955 61 25 1.0 1.0 0.00 0.00 0.00 90 1013.0
20260507054450 61 51 2.0 3.0 0.00 0.00 0.00 89 1012.6
20260507053948 61 29 3.0 5.0 0.00 0.00 0.00 90 1013.0
20260507053446 61 23 0.0 1.0 0.00 0.00 0.00 89 1012.9
20260507052944 61 31 3.0 5.0 0.00 0.00 0.00 89 1013.0
20260507052441 62 52 3.0 3.0 0.00 0.00 0.00 89 1012.8
20260507051938 62 36 2.0 2.0 0.00 0.00 0.00 89 1012.6
20260507051436 62 107 1.0 1.0 0.00 0.00 0.00 89 1013.0
20260507050932 62 28 1.0 3.0 0.00 0.00 0.00 89 1012.9
20260507050429 62 20 3.0 5.0 0.00 0.00 0.00 89 1012.9
20260507045926 62 80 1.0 1.0 0.00 0.00 0.00 89 1013.0
20260507045422 62 122 2.0 2.0 0.00 0.00 0.00 89 1013.4
20260507044920 62 73 2.0 3.0 0.00 0.00 0.00 89 1013.1
20260507044416 62 19 2.0 3.0 0.00 0.00 0.00 89 1013.1
20260507043912 62 9 1.0 2.0 0.00 0.00 0.00 88 1012.9
20260507043409 62 6 2.0 6.0 0.00 0.00 0.00 89 1013.1
20260507042905 62 154 2.0 2.0 0.00 0.00 0.00 89 1013.1
20260507042402 62 66 0.0 1.0 0.00 0.00 0.00 89 1013.1
20260507041858 62 58 1.0 2.0 0.00 0.00 0.00 89 1013.0
20260507041355 62 56 3.0 3.0 0.00 0.00 0.00 88 1012.6
20260507040852 62 24 2.0 2.0 0.00 0.00 0.00 88 1012.6
20260507040348 62 36 4.0 5.0 0.00 0.00 0.00 88 1012.6
20260507035844 62 75 2.0 3.0 0.00 0.00 0.00 89 1012.4
20260507035340 62 16 3.0 5.0 0.00 0.00 0.00 88 1012.2
20260507034837 62 84 1.0 1.0 0.00 0.00 0.00 88 1012.6
20260507034334 62 27 3.0 5.0 0.00 0.00 0.00 88 1012.6
20260507033832 62 129 2.0 2.0 0.00 0.00 0.00 88 1012.5
20260507033330 62 41 4.0 6.0 0.00 0.00 0.00 88 1012.3
20260507032826 62 74 3.0 5.0 0.00 0.00 0.00 88 1012.3
20260507032322 62 51 2.0 3.0 0.00 0.00 0.00 88 1012.1
20260507031819 62 93 2.0 3.0 0.00 0.00 0.00 88 1012.2
20260507031316 62 19 1.0 2.0 0.00 0.00 0.00 88 1012.4
20260507030812 63 66 1.0 2.0 0.00 0.00 0.00 88 1012.3
20260507030311 63 36 2.0 3.0 0.00 0.00 0.00 89 1012.3
20260507025807 62 45 3.0 3.0 0.00 0.00 0.00 88 1012.5
20260507025306 62 41 5.0 9.0 0.00 0.00 0.00 88 1012.3
20260507024802 63 59 1.0 2.0 0.00 0.00 0.00 89 1012.0
20260507024259 62 20 1.0 2.0 0.00 0.00 0.00 88 1012.2
20260507023755 62 324 4.0 8.0 0.00 0.00 0.00 89 1012.3
20260507023252 62 48 2.0 3.0 0.00 0.00 0.00 89 1012.3
20260507022749 62 37 1.0 1.0 0.00 0.00 0.00 89 1012.1
20260507022245 63 67 0.0 0.0 0.00 0.00 0.00 89 1012.2
20260507021741 63 36 1.0 1.0 0.00 0.00 0.00 88 1012.0
20260507021237 63 6 2.0 3.0 0.00 0.00 0.00 88 1011.7
20260507020735 63 0 2.0 2.0 0.00 0.00 0.00 88 1011.4
20260507020232 63 54 3.0 3.0 0.00 0.00 0.00 88 1011.3
20260507015729 63 41 2.0 2.0 0.00 0.00 0.00 88 1011.6
20260507015226 63 45 2.0 2.0 0.00 0.00 0.00 88 1011.7
20260507014723 63 113 4.0 6.0 0.00 0.00 0.00 88 1011.4
20260507014220 63 353 4.0 6.0 0.00 0.00 0.00 88 1011.4
20260507013716 63 59 1.0 1.0 0.00 0.00 0.00 88 1011.3
20260507013213 63 62 1.0 2.0 0.00 0.00 0.00 88 1011.5
20260507012711 63 23 3.0 5.0 0.00 0.00 0.00 88 1011.2
20260507012206 63 53 4.0 6.0 0.00 0.00 0.00 87 1011.0
20260507011704 63 25 1.0 1.0 0.00 0.00 0.00 87 1011.3
20260507011200 63 33 3.0 5.0 0.00 0.00 0.00 87 1010.7
20260507010659 63 52 1.0 2.0 0.00 0.00 0.00 87 1011.1
20260507010156 63 60 1.0 2.0 0.00 0.00 0.00 87 1010.6
20260507005654 63 100 1.0 2.0 0.00 0.00 0.00 87 1010.6
20260507005155 63 67 1.0 1.0 0.00 0.00 0.00 87 1010.6
20260507004652 64 68 1.0 2.0 0.00 0.00 0.00 86 1010.8
20260507004149 64 30 2.0 2.0 0.00 0.00 0.00 86 1010.9
20260507003646 64 1 3.0 6.0 0.00 0.00 0.00 86 1010.6
20260507003146 64 321 3.0 5.0 0.00 0.00 0.00 85 1010.8
20260507002642 65 348 3.0 5.0 0.00 0.00 0.00 85 1010.5
20260507002138 65 103 3.0 6.0 0.00 0.00 0.00 85 1010.5
20260507001635 64 33 3.0 3.0 0.00 0.00 0.00 85 1010.6
20260507001133 65 348 3.0 5.0 0.00 0.00 0.00 84 1010.4
20260507000629 65 105 5.0 6.0 0.00 0.00 0.00 84 1010.3
20260507000124 65 32 7.0 10.0 0.00 0.00 0.00 83 1010.3
20260506235622 66 26 2.0 3.0 0.00 0.00 0.00 83 1010.2
20260506235122 66 304 7.0 11.0 0.00 0.00 0.00 83 1010.3
20260506234620 67 321 5.0 9.0 0.00 0.00 0.00 82 1010.2
20260506234116 67 43 2.0 2.0 0.00 0.00 0.00 82 1010.1
20260506233613 67 15 3.0 5.0 0.00 0.00 0.00 81 1009.8
20260506233111 67 16 3.0 6.0 0.00 0.00 0.00 82 1009.8
20260506232606 68 356 4.0 6.0 0.00 0.00 0.00 80 1009.8
20260506232102 68 16 1.0 1.0 0.00 0.00 0.00 80 1010.0
20260506231559 68 354 5.0 9.0 0.00 0.00 0.00 79 1009.8
20260506231058 71 44 4.0 6.0 0.00 0.00 0.00 76 1009.7
20260506230554 71 16 3.0 3.0 0.00 0.00 0.00 75 1009.6
20260506230051 72 12 7.0 9.0 0.00 0.00 0.00 74 1009.4
20260506225548 71 26 3.0 3.0 0.00 0.00 0.00 76 1009.5
20260506225044 72 346 7.0 9.0 0.00 0.00 0.00 74 1009.5
20260506224541 72 336 4.0 6.0 0.00 0.00 0.00 74 1009.5
20260506224038 73 323 4.0 5.0 0.00 0.00 0.00 73 1009.4
20260506223533 73 26 5.0 8.0 0.00 0.00 0.00 74 1009.5
20260506223030 74 101 2.0 3.0 0.00 0.00 0.00 74 1009.2
20260506222527 74 1 5.0 7.0 0.00 0.00 0.00 74 1009.1
20260506222024 74 9 7.0 11.0 0.00 0.00 0.00 73 1009.1
20260506221521 74 107 3.0 6.0 0.00 0.00 0.00 74 1009.0
20260506221019 77 311 8.0 10.0 0.00 0.00 0.00 70 1008.9
20260506220514 78 145 1.0 2.0 0.00 0.00 0.00 71 1009.0
20260506220010 77 24 5.0 7.0 0.00 0.00 0.00 71 1009.0
20260506215507 76 15 2.0 2.0 0.00 0.00 0.00 72 1008.9
20260506215003 75 37 4.0 6.0 0.00 0.00 0.00 75 1009.1
20260506214500 78 330 4.0 7.0 0.00 0.00 0.00 72 1009.1
20260506213957 79 353 3.0 5.0 0.00 0.00 0.00 71 1009.0
20260506213455 79 43 4.0 7.0 0.00 0.00 0.00 70 1009.2
20260506212952 77 26 6.0 7.0 0.00 0.00 0.00 73 1008.9
20260506212448 78 301 6.0 8.0 0.00 0.00 0.00 72 1008.6
20260506211943 80 311 5.0 8.0 0.00 0.00 0.00 70 1008.9
20260506211439 81 130 3.0 5.0 0.00 0.00 0.00 69 1008.8
20260506210937 82 133 3.0 7.0 0.00 0.00 0.00 70 1009.1
20260506210433 81 132 1.0 2.0 0.00 0.00 0.00 71 1008.9
20260506205930 79 141 2.0 2.0 0.00 0.00 0.00 74 1008.8
20260506205426 77 228 3.0 3.0 0.00 0.00 0.00 78 1008.9
20260506204923 76 137 2.0 3.0 0.00 0.00 0.00 80 1009.0
20260506204421 75 138 2.0 2.0 0.00 0.00 0.00 82 1009.0
20260506203918 75 139 1.0 1.0 0.00 0.00 0.00 84 1009.2
20260506203415 74 137 3.0 3.0 0.00 0.00 0.00 85 1009.3
20260506202912 74 138 2.0 2.0 0.00 0.00 0.00 86 1009.3
20260506202409 74 142 2.0 3.0 0.00 0.00 0.00 86 1009.4
20260506201905 75 141 2.0 2.0 0.00 0.00 0.00 85 1009.2
20260506201403 79 145 3.0 5.0 0.00 0.00 0.00 80 1009.0
20260506200859 81 143 1.0 1.0 0.00 0.00 0.00 79 1009.1
20260506200355 81 143 0.0 1.0 0.00 0.00 0.00 80 1008.9
20260506195852 81 143 0.0 0.0 0.00 0.00 0.00 78 1009.0
20260506195349 82 143 1.0 1.0 0.00 0.00 0.00 78 1008.9
20260506194846 83 143 1.0 2.0 0.00 0.00 0.00 77 1008.8
20260506194343 83 143 0.0 0.0 0.00 0.00 0.00 75 1008.9
20260506193840 84 142 1.0 1.0 0.00 0.00 0.00 75 1008.7
20260506193337 84 143 1.0 1.0 0.00 0.00 0.00 75 1008.7
20260506192833 84 142 1.0 1.0 0.00 0.00 0.00 74 1008.7
20260506192330 84 143 1.0 1.0 0.00 0.00 0.00 75 1008.8
20260506191827 86 141 2.0 5.0 0.00 0.00 0.00 73 1008.8
20260506191323 86 143 1.0 1.0 0.00 0.00 0.00 71 1009.0
20260506190820 86 145 1.0 1.0 0.00 0.00 0.00 72 1009.0
20260506190317 86 144 2.0 3.0 0.00 0.00 0.00 70 1009.1
20260506185814 84 144 3.0 5.0 0.00 0.00 0.00 75 1009.0
20260506185311 84 143 0.0 1.0 0.00 0.00 0.00 76 1009.1
20260506184808 84 143 2.0 3.0 0.00 0.00 0.00 76 1009.3
20260506184305 84 152 2.0 2.0 0.00 0.00 0.00 74 1009.2
20260506183802 83 178 1.0 1.0 0.00 0.00 0.00 77 1009.3
20260506183257 83 149 4.0 5.0 0.00 0.00 0.00 76 1009.6
20260506182754 83 143 1.0 2.0 0.00 0.00 0.00 77 1009.5
20260506182251 83 143 0.0 0.0 0.00 0.00 0.00 76 1009.3
20260506181749 83 143 2.0 2.0 0.00 0.00 0.00 77 1009.5
20260506181247 83 152 3.0 5.0 0.00 0.00 0.00 76 1009.5
20260506180744 84 142 2.0 3.0 0.00 0.00 0.00 73 1009.5
20260506180239 83 159 2.0 3.0 0.00 0.00 0.00 76 1009.3
20260506175736 83 158 2.0 2.0 0.00 0.00 0.00 77 1009.2
20260506175233 80 144 2.0 2.0 0.00 0.00 0.00 81 1009.5
20260506174731 78 143 0.0 1.0 0.00 0.00 0.00 83 1009.5
20260506174227 77 143 1.0 2.0 0.00 0.00 0.00 83 1009.7
20260506173725 76 143 1.0 1.0 0.00 0.00 0.00 85 1009.8
20260506173222 76 142 0.0 1.0 0.00 0.00 0.00 86 1009.8
20260506172719 75 142 0.0 1.0 0.00 0.00 0.00 86 1010.2
20260506172215 75 142 2.0 3.0 0.00 0.00 0.00 86 1010.4
20260506171713 75 142 0.0 1.0 0.00 0.00 0.00 87 1010.3
20260506171210 76 140 2.0 2.0 0.00 0.00 0.00 86 1010.2
20260506170707 78 151 0.0 1.0 0.00 0.00 0.00 90 1010.1
20260506170204 77 151 2.0 3.0 0.00 0.00 0.00 91 1010.0
20260506165702 77 151 1.0 2.0 0.00 0.00 0.00 92 1010.0
20260506165159 77 150 1.0 1.0 0.00 0.00 0.00 93 1010.3
20260506164656 76 151 0.0 1.0 0.00 0.00 0.00 94 1010.2
20260506164153 77 151 2.0 2.0 0.00 0.00 0.00 93 1010.2
20260506163649 77 166 2.0 2.0 0.00 0.00 0.00 92 1010.2
20260506163145 77 149 1.0 1.0 0.00 0.00 0.00 91 1010.2
20260506162641 77 149 1.0 2.0 0.00 0.00 0.00 91 1010.2
20260506162139 77 149 0.0 1.0 0.00 0.00 0.00 91 1010.3
20260506161636 77 150 1.0 2.0 0.00 0.00 0.00 91 1010.4
20260506161132 77 149 1.0 1.0 0.00 0.00 0.00 91 1010.2
20260506160630 77 150 1.0 1.0 0.00 0.00 0.00 92 1010.3
20260506160127 77 151 0.0 1.0 0.00 0.00 0.00 92 1010.2
20260506155626 77 150 1.0 1.0 0.00 0.00 0.00 93 1010.0
20260506155122 76 151 0.0 0.0 0.00 0.00 0.00 94 1009.7
20260506153224 76 151 0.0 0.0 0.00 0.00 0.00 95 1009.5
20260506152721 75 151 0.0 0.0 0.00 0.00 0.00 95 1009.7
20260506152219 75 151 0.0 0.0 0.00 0.00 0.00 95 1009.5
20260506151718 75 151 0.0 0.0 0.00 0.00 0.00 96 1009.2
20260506151214 75 151 0.0 1.0 0.00 0.00 0.00 96 1009.1
20260506150710 74 151 0.0 0.0 0.00 0.00 0.00 96 1009.1
20260506150207 75 150 0.0 0.0 0.00 0.00 0.00 96 1009.3
20260506145704 74 150 0.0 0.0 0.00 0.00 0.00 96 1009.2
20260506145201 74 150 0.0 0.0 0.00 0.00 0.00 96 1009.1
20260506144659 74 150 0.0 1.0 0.00 0.00 0.00 96 1009.1
20260506144155 74 151 0.0 0.0 0.00 0.00 0.00 95 1009.0
20260506143653 74 151 0.0 0.0 0.00 0.00 0.00 95 1009.2
20260506143150 74 151 0.0 0.0 0.00 0.00 0.00 95 1009.0